Location: ???????
(56.2167°N, 38.0500°E)
Time: 23:10:25
(UTC+00:00)

Cosmos 44 Rocket - Pass Details

Date: 10 August 2025
Orbit: 637 x 741 km, 65.1° (Epoch: 15 December)

Event Time Altitude Azimuth Distance (km) Brightness Sun altitude
Rises 18:30:14 0° 232° (SW) 2,951 6.6 -8.9°
Reaches altitude 10° 18:32:30 10° 234° (SW) 2,054 5.8 -9.1°
Maximum altitude 18:37:10 76° 321° (NW) 688 3.4 -9.6°
Drops below altitude 10° 18:41:59 10° 48° (NE) 2,123 5.8 -10.0°
Sets 18:44:22 0° 50° (NE) 3,059 6.6 -10.2°
